[[{"header":{"parameterUnit":"m.s-1","parameterCategory":1,"la1":30.2991,"la2":30.254,"lo1":-89.0895,"lo2":-89.0444,"dy":0.0017,"dx":0.0017,"nx":28,"ny":28,"refTime":"2025-03-27T03:00:00:Z","depth":0,"parameterNumber":2,"parameterNumberName":"U-component_of_WINDS"},"data":[0,0,0,0,0,0,0,0,0,0,0,0,0,0,0,0,0,0,0,0,0,0,0,0,0,0,0,0,0,0,0,0,0,0,0,0,0,0,0,0,0,0,0,0,0,0,0,0,0,0,0,0,0,0,0,0,0,0,-5.3835,-5.3835,0,-5.3924,-5.3925,-5.3926,-5.3802,-5.3798,-5.3793,-5.3789,-5.3882,-5.3889,-5.3895,0,0,0,0,0,0,0,0,0,0,0,0,0,-5.3556,-5.3561,-5.3834,-5.3836,-5.3837,-5.3924,-5.3926,-5.3927,-5.3803,-5.3797,-5.3792,-5.3787,-5.388,-5.3888,-5.3896,0,0,0,0,0,0,0,0,0,0,0,0,0,-5.3664,-5.3563,-5.3834,-5.3785,-5.3782,-5.3924,-5.3926,-5.3927,-5.3804,-5.3797,-5.3791,-5.3784,-5.3877,-5.3887,-5.3897,-5.4092,0,0,-5.3927,-5.3932,0,0,0,0,0,0,0,0,-5.3658,-5.3675,-5.3791,-5.3789,-5.3785,-5.3845,-5.3861,-5.3982,-5.3806,-5.3796,-5.3789,-5.3781,-5.3875,-5.3885,-5.3917,-5.4096,-5.41,-5.3928,-5.3934,-5.3938,-5.3941,0,0,0,0,0,0,0,-5.3651,-5.367,-5.387,-5.3793,-5.379,-5.3759,-5.3767,-5.3884,-5.3872,-5.3796,-5.3787,-5.3799,-5.3872,-5.3907,-5.3918,-5.4101,-5.3928,-5.3937,-5.3943,-5.3947,-5.4443,-5.445,0,0,0,0,0,0,-5.3649,-5.3665,-5.3867,-5.3873,-5.3704,-5.377,-5.3778,-5.3833,-5.387,-5.3869,-5.3805,-5.3793,-5.3894,-5.3906,-5.3921,-5.4149,-5.3938,-5.3948,-5.3953,-5.4436,-5.4444,-5.4452,0,0,0,0,0,0,-5.3644,-5.3668,-5.3863,-5.3766,-5.3789,-5.3781,-5.3843,-5.3838,-5.3873,-5.3877,-5.3874,-5.3843,-5.3889,-5.3907,-5.4049,-5.4151,-5.3952,-5.3961,-5.4427,-5.4438,-5.4448,-5.4609,0,0,0,0,0,0,-5.3636,-5.3667,-5.3741,-5.3769,-5.3795,-5.3991,-5.385,-5.3845,-5.389,-5.3876,-5.3912,-5.3911,-5.3885,-5.4035,-5.4059,-5.4161,-5.3969,-5.4418,-5.4432,-5.4445,-5.4594,-5.4624,-5.4649,0,0,0,0,0,-5.3627,-5.3783,-5.3745,-5.377,-5.3887,-5.3997,-5.4012,-5.3978,-5.3899,-5.3973,-5.3975,-5.391,-5.4136,-5.4051,-5.4077,-5.4183,-5.4411,-5.4428,-5.4444,-5.4582,-5.4618,-5.4648,0,0,0,0,0,0,-5.3768,-5.3786,-5.3744,-5.3914,-5.3955,-5.3976,-5.4068,-5.4017,-5.4082,-5.4065,-5.4021,-5.403,-5.4183,-5.4197,-5.4102,-5.4372,-5.4261,-5.4283,-5.4357,-5.4391,-5.4418,-5.441,-5.3977,0,0,0,0,0,-5.3819,-5.3907,-5.3918,-5.4067,-5.409,-5.4076,-5.4123,-5.4093,-5.4134,-5.4151,-5.4164,-5.4206,-5.4286,-5.4339,-5.4414,-5.4597,-5.4602,-5.4682,-5.471,-5.4732,-5.4751,-5.4847,-5.4882,-5.4506,-5.4505,-5.4505,0,0,-5.3925,-5.3946,-5.4004,-5.4096,-5.4124,-5.4216,-5.4091,-5.4194,-5.4262,-5.4166,-5.4301,-5.4313,-5.4356,-5.452,-5.4592,-5.4536,-5.4857,-5.4753,-5.477,-5.4777,-5.4867,-5.4903,-5.4935,-5.4517,-5.4515,-5.4513,0,0,-5.4164,-5.419,-5.4316,-5.4347,-5.439,-5.438,-5.4411,-5.444,-5.4443,-5.4578,-5.4507,-5.4588,-5.4727,-5.4761,-5.4796,-5.5049,-5.4991,-5.5074,-5.5216,-5.531,-5.534,-5.5366,-5.5454,-5.5486,-5.5094,-5.5094,-5.5095,0,-5.429,-5.4426,-5.4387,-5.4495,-5.4537,-5.4455,-5.4581,-5.4613,-5.468,-5.4711,-5.4647,-5.482,-5.4844,-5.5013,-5.5074,-5.5106,-5.5139,-5.5069,-5.5339,-5.5364,-5.5388,-5.5472,-5.5505,-5.5104,-5.5103,-5.5102,-5.5101,0,-5.4578,-5.4673,-5.477,-5.4835,-5.4888,-5.5005,-5.4984,-5.5043,-5.5009,-5.5006,-5.5143,-5.5169,-5.5246,-5.5285,-5.5253,-5.545,-5.5413,-5.5346,-5.5232,-5.5434,-5.5512,-5.5544,-5.5118,-5.5114,-5.5111,-5.5109,0,0,-5.4908,-5.495,-5.4986,-5.5014,-5.5056,-5.5129,-5.5242,-5.5317,-5.5367,-5.5417,-5.5509,-5.5629,-5.5566,-5.5607,-5.5578,-5.5662,-5.5857,-5.5583,-5.5583,-5.5631,-5.6073,-5.6122,-5.616,-5.582,-5.5826,-5.5831,-5.6069,0,-5.5145,-5.534,-5.5308,-5.5497,-5.5583,-5.5506,-5.5605,-5.5642,-5.5642,-5.5715,-5.5715,-5.58,-5.5712,-5.5735,-5.5814,-5.5817,-5.5945,-5.58,-5.5905,-5.5909,-5.5894,-5.6201,-5.6253,-5.6476,-5.6099,-5.6104,-5.6108,0,-5.5447,-5.5506,-5.5704,-5.5731,-5.5766,-5.5855,-5.5921,-5.5993,-5.6033,-5.6027,-5.6072,-5.6028,-5.6141,-5.6027,-5.6181,-5.6082,-5.6124,-5.6132,-5.614,-5.6146,-5.6019,-5.6213,-5.6546,-5.6579,-5.6156,-5.6152,-5.6148,0,-5.5665,-5.5794,-5.5928,-5.5955,-5.5991,-5.6055,-5.6074,-5.6107,-5.6154,-5.6212,-5.6241,-5.6312,-5.6351,-5.6406,-5.6382,-5.6302,-5.654,-5.6425,-5.6537,-5.6538,-5.6589,-5.6585,-5.6931,-5.662,-5.662,-5.6619,-5.6618,0,-5.5932,-5.6055,-5.6026,-5.6108,-5.6244,-5.6207,-5.6342,-5.6351,-5.6381,-5.6463,-5.6403,-5.6481,-5.6446,-5.6523,-5.6505,-5.6634,-5.6652,-5.665,-5.6643,-5.6654,-5.6654,-5.6679,-5.6662,-5.6628,-5.6626,-5.6624,-5.6623,0,-5.6197,-5.6183,-5.6323,-5.6346,-5.6355,-5.6454,-5.6473,-5.655,-5.6545,-5.665,-5.6673,-5.6666,-5.6753,-5.6735,-5.6831,-5.6819,-5.698,-5.6955,-5.6966,-5.6959,-5.7071,-5.706,-5.7443,-5.749,-5.7151,-5.7155,-5.7157,0,-5.6367,-5.6459,-5.6492,-5.6543,-5.6566,-5.6648,-5.6695,-5.6663,-5.6715,-5.6767,-5.6838,-5.6919,-5.6981,-5.7123,-5.7127,-5.7199,-5.7174,-5.7304,-5.7185,-5.7192,-5.7173,-5.7167,-5.7175,-5.7326,-5.733,-5.7333,-5.7336,0,-5.6669,-5.6657,-5.6727,-5.6796,-5.6854,-5.6906,-5.6953,-5.6998,-5.6969,-5.703,-5.7118,-5.7167,-5.7264,-5.7344,-5.7412,-5.743,-5.7379,-5.7374,-5.7403,-5.7413,-5.7415,-5.7413,-5.7027,-5.7364,-5.7362,-5.736,-5.7358,-5.7357,-5.689,-5.6968,-5.7003,-5.7083,-5.7114,-5.7159,-5.7232,-5.7237,-5.7309,-5.7385,-5.7362,-5.7461,-5.7498,-5.7583,-5.7609,-5.7686,-5.7638,-5.7681,-5.7691,-5.7702,-5.7714,-5.7405,-5.7699,-5.7698,-5.7697,-5.7696,-5.7696,0,-5.7186,-5.7205,-5.7279,-5.7346,-5.7409,-5.7355,-5.7404,-5.746,-5.7548,-5.7587,-5.765,-5.775,-5.7828,-5.7838,-5.7912,-5.7971,-5.7949,-5.7991,-5.7985,-5.799,-5.7755,-5.7721,-5.8008,-5.8008,-5.8008,-5.8008,-5.8007,-5.8007,-5.7348,-5.7476,-5.7469,-5.7613,-5.763,-5.7727,-5.7759,-5.78,-5.783,-5.7944,-5.8009,-5.8015,-5.8042,-5.8117,-5.8186,-5.8187,-5.8216,-5.8267,-5.8258,-5.8038,-5.8007,-5.7977,-5.7945,-5.8274,-5.8274,-5.8487,-5.8489,-5.849]},{"header":{"parameterUnit":"m.s-1","parameterCategory":1,"la1":30.2991,"la2":30.254,"lo1":-89.0895,"lo2":-89.0444,"dy":0.0017,"dx":0.0017,"nx":28,"ny":28,"refTime":"2025-03-27T03:00:00:Z","depth":0,"parameterNumber":3,"parameterNumberName":"V-component_of_WINDS"},"data":[0,0,0,0,0,0,0,0,0,0,0,0,0,0,0,0,0,0,0,0,0,0,0,0,0,0,0,0,0,0,0,0,0,0,0,0,0,0,0,0,0,0,0,0,0,0,0,0,0,0,0,0,0,0,0,0,0,0,1.6865,1.6866,0,1.6907,1.6908,1.6908,1.6897,1.6897,1.6896,1.6895,1.6935,1.6937,1.6939,0,0,0,0,0,0,0,0,0,0,0,0,0,1.6774,1.6776,1.6865,1.6866,1.6866,1.6907,1.6908,1.6908,1.6898,1.6897,1.6896,1.6895,1.6935,1.6937,1.6939,0,0,0,0,0,0,0,0,0,0,0,0,0,1.6815,1.6777,1.6865,1.6866,1.6866,1.6907,1.6908,1.6908,1.6898,1.6897,1.6895,1.6894,1.6934,1.6937,1.6939,1.6981,0,0,1.6948,1.6949,0,0,0,0,0,0,0,0,1.6812,1.6818,1.6865,1.6866,1.6867,1.6896,1.689,1.6932,1.6898,1.6886,1.6895,1.6894,1.6923,1.6926,1.6937,1.6982,1.6984,1.6948,1.695,1.6951,1.6951,0,0,0,0,0,0,0,1.681,1.6816,1.6882,1.6866,1.6867,1.6864,1.6868,1.6898,1.6911,1.6887,1.6886,1.6891,1.6923,1.6934,1.6938,1.6985,1.6948,1.695,1.6952,1.6953,1.7068,1.7069,0,0,0,0,0,0,1.6807,1.6814,1.688,1.6883,1.6836,1.6866,1.6871,1.6888,1.691,1.6913,1.6892,1.6891,1.693,1.6935,1.6939,1.699,1.6951,1.6953,1.6955,1.7066,1.7068,1.707,0,0,0,0,0,0,1.6805,1.6813,1.6879,1.6848,1.6856,1.6869,1.6888,1.6889,1.69,1.6915,1.6916,1.6902,1.6929,1.6935,1.6971,1.6991,1.6954,1.6957,1.7065,1.7067,1.7069,1.7092,0,0,0,0,0,0,1.6802,1.6812,1.6828,1.6849,1.6858,1.691,1.6889,1.6891,1.6905,1.6904,1.6924,1.6926,1.6929,1.6967,1.6974,1.6994,1.6959,1.7063,1.7066,1.7068,1.7089,1.7094,1.7099,0,0,0,0,0,1.6799,1.6832,1.6829,1.6837,1.6879,1.6911,1.6917,1.692,1.6907,1.6923,1.6933,1.6925,1.6988,1.6971,1.6978,1.7,1.7062,1.7065,1.7068,1.7087,1.7093,1.7098,0,0,0,0,0,0,1.6812,1.6835,1.6832,1.6872,1.689,1.691,1.693,1.6926,1.6948,1.6945,1.6948,1.6952,1.6989,1.6998,1.6978,1.7042,1.7023,1.7028,1.7035,1.7041,1.7045,1.7043,1.6961,0,0,0,0,0,1.682,1.6845,1.6863,1.6897,1.6907,1.6917,1.6931,1.6933,1.6951,1.6958,1.697,1.6987,1.7011,1.7026,1.7049,1.709,1.7095,1.7109,1.7114,1.7118,1.7122,1.7146,1.7153,1.708,1.708,1.708,0,0,1.6835,1.6851,1.6867,1.6901,1.6914,1.6941,1.6923,1.6951,1.697,1.6962,1.6997,1.7006,1.7026,1.7065,1.7083,1.7073,1.7143,1.7122,1.7125,1.7127,1.715,1.7157,1.7163,1.7082,1.7082,1.7081,0,0,1.6878,1.6892,1.6923,1.6938,1.696,1.6967,1.6974,1.6995,1.7001,1.7036,1.7031,1.7054,1.7094,1.7109,1.7121,1.7171,1.7166,1.7179,1.7203,1.7227,1.7233,1.7238,1.7256,1.7263,1.7183,1.7183,1.7183,0,1.6895,1.6935,1.6939,1.6968,1.6983,1.6979,1.701,1.7024,1.7051,1.7062,1.7051,1.7103,1.7116,1.7159,1.7172,1.7182,1.719,1.7176,1.7231,1.7237,1.7241,1.7259,1.7266,1.7184,1.7184,1.7184,1.7184,0,1.6955,1.6982,1.7004,1.7033,1.7051,1.7081,1.7089,1.7107,1.7107,1.7115,1.7151,1.7167,1.7193,1.7203,1.7203,1.7247,1.7241,1.7231,1.7212,1.725,1.7267,1.7273,1.7186,1.7186,1.7185,1.7185,0,0,1.7005,1.7038,1.7046,1.706,1.7084,1.7105,1.7135,1.7162,1.7177,1.7197,1.7222,1.7257,1.7249,1.7264,1.7265,1.7285,1.7325,1.7273,1.7274,1.7283,1.7376,1.7383,1.7391,1.7322,1.7323,1.7324,1.7374,0,1.7051,1.7105,1.7111,1.7158,1.7185,1.7181,1.7207,1.7225,1.7233,1.7256,1.7265,1.7291,1.7277,1.7286,1.7306,1.7316,1.7344,1.7313,1.7345,1.7346,1.7341,1.74,1.7408,1.7454,1.7381,1.7382,1.7383,0,1.7111,1.7134,1.7185,1.7208,1.7219,1.7242,1.7268,1.729,1.7311,1.7315,1.7333,1.7332,1.7362,1.7343,1.7385,1.7364,1.7377,1.7384,1.7386,1.739,1.7367,1.7405,1.7469,1.7476,1.7393,1.7392,1.7391,0,1.7144,1.7188,1.7225,1.7236,1.7263,1.728,1.7292,1.7311,1.7327,1.735,1.736,1.7385,1.7399,1.7419,1.7425,1.7409,1.7467,1.7448,1.7472,1.7472,1.7485,1.7484,1.7552,1.7493,1.7493,1.7493,1.7492,0,1.7194,1.7226,1.724,1.7263,1.7298,1.7304,1.7339,1.735,1.7367,1.7392,1.739,1.7412,1.7419,1.7443,1.7448,1.7483,1.7489,1.7493,1.7494,1.7494,1.7493,1.7503,1.75,1.7494,1.7494,1.7494,1.7493,0,1.7237,1.7248,1.7288,1.7311,1.7318,1.7343,1.7362,1.7384,1.7393,1.7424,1.7431,1.7445,1.7473,1.7481,1.7514,1.7518,1.7559,1.7557,1.7553,1.7553,1.7578,1.7576,1.7655,1.7666,1.7599,1.7599,1.76,0,1.7269,1.7293,1.732,1.7337,1.735,1.7377,1.7394,1.7401,1.7419,1.7445,1.7464,1.7492,1.7515,1.756,1.7573,1.7598,1.7597,1.7623,1.7601,1.76,1.7598,1.7597,1.76,1.7627,1.7628,1.7629,1.7629,0,1.7324,1.7329,1.7354,1.7382,1.7403,1.7425,1.7446,1.746,1.747,1.749,1.752,1.7538,1.7573,1.7601,1.7628,1.7639,1.7636,1.7636,1.7643,1.7643,1.7641,1.7643,1.7565,1.7634,1.7634,1.7633,1.7633,1.7633,1.7363,1.7385,1.7408,1.7437,1.7454,1.7474,1.7496,1.7508,1.7534,1.7564,1.7566,1.7599,1.7619,1.7655,1.7668,1.7693,1.7685,1.7695,1.7698,1.7701,1.7703,1.7636,1.7698,1.7698,1.7697,1.7697,1.7697,0,1.7419,1.7434,1.746,1.7491,1.7514,1.751,1.7533,1.7553,1.7582,1.7602,1.7625,1.766,1.7687,1.7703,1.773,1.7748,1.7747,1.7755,1.7754,1.7757,1.7708,1.77,1.7755,1.7755,1.7755,1.7755,1.7755,1.7755,1.7451,1.7489,1.7496,1.7543,1.7557,1.759,1.7604,1.7623,1.7639,1.7678,1.7702,1.7712,1.773,1.776,1.7785,1.7789,1.7799,1.7808,1.7811,1.7766,1.776,1.7754,1.7746,1.781,1.781,1.7857,1.7858,1.7858]}]]